Skip Navigation Links
NOAA logo - Click to go to the NOAA homepage
NOAA's National Weather Service
Alaska Aviation Weather Unit
  NWS logo - Click to go to the NWS homepage
Left Navbar Graphic     00 AKDT = 08 GMT

   
NOAA is celebrating 200 years of science, service, and stewardship. Visit the NOAA 200th celebration Web site to learn more.
USA.gov is the U.S. Government's official Web portal to all Federal, state and local government Web resources and services.
Facebook
NWS on Facebook

Important Change Regarding the AAWU Web Presence

 

Over the last several months, the AAWU has been working to navigate its webpages to a nationally supported server. Security, as well as other needs, have necessitated the change.  We have been given an extension for the site changeover while we diligently work at addressing feedback received. As of July 14, 2017, aawu.arh.noaa.gov will be discontinued. The new AAWU web address is weather.gov/aawu. It is now live and will run in-parallel with the old site until it is discontinued on July 14, 2017. Please continue to send any feedback or questions regarding the new webpages to nws.ar.aawu.webauthors@noaa.gov.  Thank you for your patience during this time of transition.
AAWU Home :: Display TAF Add Bookmark
TAF PADL 240543Z 2406/2506  24006KT P6SM -RA OVC020
      TEMPO 2406/2410 SCT020 BKN040
     FM241700 17008KT P6SM -SHRA FEW020 BKN030
     FM242100 17010G16KT P6SM VCSH FEW025 BKN035=



PADL 240240Z 25007KT 10SM -RA FEW010 OVC040 08/08 A2933= SPECI PADL 240240Z 25007KT 10SM -RA FEW010 OVC040 08/08 A2933 RMK AO2 P0000= METAR PADL 240256Z 25007KT 10SM -RA SCT010 OVC038 08/08 A2933= METAR PADL 240356Z VRB03KT 10SM BKN021 OVC026 07/07 A2934= METAR PADL 240456Z VRB04KT 10SM -RA FEW042 BKN070 OVC100 07/06 A2935= METAR PADL 240656Z AUTO 00000KT 10SM FEW031 SCT070 BKN090 05/04 A2937= METAR PADL 240756Z AUTO 00000KT 10SM CLR 04/04 A2939=
 Alaska TAF Map

NOAA's National Weather Service
Alaska Aviation Weather Unit
6930 Sand Lake Road
Anchorage, AK 99502-1845
Disclaimer
Credits
Glossary
Privacy Policy
About Us
Career Opportunities
Contact AAWU Internet Services Site last modified: April, 17th 2012